St. Joseph, KS

7:26 AM CST on December 13, 2019 (GMT -0600)
Rosecrans Memorial

Weather History for KSTJ - October, 2019

Change the Weather History Date:

Sunday, October 27, 2019

  Actual Average Record
Temperature  
Mean Temperature 45 °F 51 °F  
Max Temperature 54 °F 62 °F 88 °F (1927)
Min Temperature 35 °F 39 °F 19 °F (2001)
Degree Days  
Heating Degree Days 20 15  
Month to date heating degree days 317 276  
Since 1 July heating degree days 322 356  
Cooling Degree Days 0 0  
Month to date cooling degree days 17 18  
Year to date cooling degree days 1466 1217  
Moisture  
Dew Point 36 °F    
Average Humidity 76    
Maximum Humidity 97    
Minimum Humidity 54    
Precipitation  
Precipitation 0.00 in 0.09 in 1.14 in (1980)
Month to date precipitation 3.14 2.50  
Year to date precipitation 36.74 32.22  
Sea Level Pressure  
Sea Level Pressure 29.91 in    
Wind  
Wind Speed 10 mph (NNW)    
Max Wind Speed 20 mph    
Max Gust Speed 26 mph    
Visibility 5 miles    
Events Fog    
T = Trace of Precipitation, MM = Missing Value Source: NWS Daily Summary

Daily Weather History Graph

Daily Weather History Graph

Search for Another Location

Airport or City:

Astronomy

Oct. 27, 2019 Rise Set
Actual Time 7:42 AM CDT 6:23 PM CDT
Civil Twilight 7:14 AM CDT 6:51 PM CDT
Nautical Twilight 6:43 AM CDT 7:23 PM CDT
Astronomical Twilight 6:11 AM CDT 7:54 PM CDT
Moon 6:52 AM CDT (10/27) 6:33 PM CDT (10/27)
Length of Visible Light 11h 36m
Length of Day
10h 41m
Waning Crescent, 0% of the Moon is Illuminated
Oct 27
Waning Crescent
Oct 27
New
Nov 4
First Quarter
Nov 12
Full
Nov 19
Last Quarter

Hourly Weather History & Observations

Time (CDT) Temp. Windchill Dew Point Humidity Pressure Visibility Wind Dir Wind Speed Gust Speed Precip Events Conditions
12:46 AM 37.9 °F - 36.0 °F 93% 29.77 in 6.0 mi Calm Calm - N/A   Scattered Clouds
12:53 AM 37.9 °F - 36.0 °F 93% 29.78 in 1.5 mi Calm Calm - N/A   Scattered Clouds
1:12 AM 39.0 °F - 37.0 °F 93% 29.78 in 0.8 mi Calm Calm - N/A   Mist
1:22 AM 39.0 °F 36.8 °F 37.9 °F 96% 29.77 in 0.2 mi South 3.5 mph - N/A Fog Fog
1:36 AM 37.9 °F - 36.0 °F 93% 29.78 in 0.2 mi Calm Calm - N/A Fog Fog
1:44 AM 37.0 °F - 35.1 °F 93% 29.78 in 1.2 mi Calm Calm - N/A   Mostly Cloudy
1:48 AM 37.4 °F - 35.6 °F 93% 29.78 in 1.5 mi Calm Calm - N/A   Scattered Clouds
1:53 AM 37.9 °F 35.5 °F 36.0 °F 93% 29.79 in 0.8 mi South 3.5 mph - N/A   Mist
2:02 AM 37.0 °F - 36.0 °F 96% 29.79 in 1.2 mi Calm Calm - N/A   Partly Cloudy
2:24 AM 37.0 °F - 35.1 °F 93% 29.80 in 0.8 mi Calm Calm - N/A   Mist
2:32 AM 36.0 °F - 35.1 °F 97% 29.80 in 0.2 mi Calm Calm - N/A Fog Fog
2:47 AM 37.4 °F - 35.6 °F 93% 29.81 in 1.0 mi Calm Calm - N/A   Mist
2:53 AM 36.0 °F - 35.1 °F 97% 29.81 in 1.8 mi Calm Calm - N/A   Mostly Cloudy
3:02 AM 35.1 °F - 33.1 °F 92% 29.81 in 0.5 mi Calm Calm - N/A Fog Fog
3:53 AM 37.9 °F - 37.0 °F 97% 29.82 in 0.2 mi Calm Calm - N/A Fog Fog
3:59 AM 39.0 °F - 37.9 °F 96% 29.82 in 1.0 mi Calm Calm - N/A   Mist
4:02 AM 39.9 °F - 39.0 °F 97% 29.82 in 2.0 mi Calm Calm - N/A   Partly Cloudy
4:10 AM 41.0 °F 39.0 °F 39.0 °F 93% 29.82 in 5.0 mi SW 3.5 mph - N/A   Partly Cloudy
4:53 AM 39.9 °F 35.8 °F 37.9 °F 93% 29.85 in 10.0 mi WSW 5.8 mph - N/A   Clear
5:53 AM 37.9 °F - 35.1 °F 89% 29.88 in 10.0 mi Calm Calm - N/A   Clear
6:53 AM 39.0 °F 33.4 °F 35.1 °F 86% 29.91 in 10.0 mi NNW 8.1 mph - N/A   Clear
8:53 AM 43.0 °F 38.2 °F 37.9 °F 82% 29.98 in 7.0 mi NNW 8.1 mph - N/A   Clear
9:53 AM 46.0 °F 39.3 °F 37.9 °F 73% 30.00 in 9.0 mi North 16.1 mph - N/A   Clear
10:53 AM 46.9 °F - 37.0 °F 68% 30.01 in 7.0 mi North 15.0 mph - N/A   Mostly Cloudy
11:53 AM 50.0 °F - 37.9 °F 63% 30.02 in 8.0 mi North 11.5 mph 24.2 mph N/A   Partly Cloudy
12:53 PM 52.0 °F - 37.9 °F 59% 30.01 in 5.0 mi NNW 9.2 mph - N/A   Haze
1:53 PM 53.1 °F - 37.9 °F 57% 29.99 in 6.0 mi NNW 11.5 mph - N/A   Haze
2:53 PM 54.0 °F - 37.9 °F 55% 29.99 in 10.0 mi North 13.8 mph 20.7 mph N/A   Clear
3:53 PM 53.1 °F - 37.9 °F 57% 30.00 in 5.0 mi North 13.8 mph - N/A   Haze
4:53 PM 52.0 °F - 37.9 °F 59% 30.01 in 10.0 mi North 10.4 mph - N/A   Mostly Cloudy
5:53 PM 50.0 °F - 37.0 °F 61% 30.04 in 10.0 mi NNW 11.5 mph - N/A   Overcast
6:53 PM 48.0 °F - 36.0 °F 63% 30.04 in 10.0 mi NNW 13.8 mph 25.3 mph N/A   Overcast
7:53 PM 46.0 °F 39.0 °F 35.1 °F 66% 30.06 in 10.0 mi NNW 17.3 mph - N/A   Overcast
8:53 PM 45.0 °F 38.2 °F 35.1 °F 68% 30.07 in 10.0 mi North 15.0 mph - N/A   Overcast
9:53 PM 44.1 °F 37.1 °F 35.1 °F 71% 30.10 in 10.0 mi NNW 15.0 mph - N/A   Overcast
10:53 PM 43.0 °F 36.0 °F 34.0 °F 71% 30.12 in 10.0 mi NNW 13.8 mph - N/A   Overcast
11:53 PM 43.0 °F 35.7 °F 34.0 °F 71% 30.12 in 10.0 mi North 15.0 mph - N/A   Overcast